This is the latest recevied weather packets stored in our database for station/object WA6MHA-11. If no packets are shown the sender has not sent any weather packets the latest 10 day(s).
| Time | Temp. | Humidity | Pressure | Rain* | Wind** | Luminosity | Snow |
|---|---|---|---|---|---|---|---|
| 1777746845 | 24.44° C | 39% | 1015.4 hPa | 0 mm | - | - | - |
| 1777746606 | 23.89° C | 40% | 1015.4 hPa | 0 mm | - | - | - |
| 1777746362 | 23.33° C | 41% | 1015.4 hPa | 0 mm | - | - | - |
| 1777746121 | 22.78° C | 41% | 1015.4 hPa | 0 mm | - | - | - |
| 1777745879 | 22.22° C | 42% | 1015.4 hPa | 0 mm | - | - | - |
| 1777744432 | 21.11° C | 45% | 1015.7 hPa | 0 mm | - | - | - |
| 1777744191 | 20.56° C | 45% | 1015.9 hPa | 0 mm | - | - | - |
| 1777743950 | 20.56° C | 46% | 1015.8 hPa | 0 mm | - | - | - |
| 1777743708 | 20° C | 46% | 1016 hPa | 0 mm | - | - | - |
| 1777743225 | 18.89° C | 47% | 1016.1 hPa | 0 mm | - | - | - |
| 1777742985 | 18.33° C | 47% | 1016.1 hPa | 0 mm | - | - | - |
| 1777742504 | 18.33° C | 47% | 1016.1 hPa | 0 mm | - | - | - |
| 1777741777 | 17.22° C | 47% | 1016.3 hPa | 0 mm | - | - | - |
| 1777741296 | 17.22° C | 48% | 1016.4 hPa | 0 mm | - | - | - |
| 1777741054 | 17.78° C | 48% | 1016.5 hPa | 0 mm | - | - | - |
| 1777740571 | 17.22° C | 48% | 1016.4 hPa | 0 mm | - | - | - |
| 1777740330 | 16.67° C | 49% | 1016.2 hPa | 0 mm | - | - | - |
| 1777740089 | 16.67° C | 49% | 1016.3 hPa | 0 mm | - | - | - |
| 1777739606 | 16.67° C | 50% | 1016.3 hPa | 0 mm | - | - | - |
| 1777739367 | 17.22° C | 51% | 1016.3 hPa | 0 mm | - | - | - |
| 1777739123 | 17.78° C | 52% | 1016.2 hPa | 0 mm | - | - | - |
| 1777738882 | 17.78° C | 52% | 1016.3 hPa | 0 mm | - | - | - |
| 1777738400 | 16.67° C | 54% | 1016.2 hPa | 0 mm | - | - | - |
| 1777738159 | 16.11° C | 54% | 1016.1 hPa | 0 mm | - | - | - |
| 1777737917 | 16.11° C | 54% | 1016.2 hPa | 0 mm | - | - | - |
* Rain since midnight (hover to see other rain measurements)
** Current wind speed in m/s (hover to see current wind gust speed)